DLH28M EDDM-LFMN

Flight info

Callsign DLH28M
Flight time 1h 17m
Altitude 35000
Route TURBU6E TURBU Y107 TOBSO DCT BAKOR DCT RENTA DCT ATPED DCT LUSIL DCT EVANO DCT ENOBA Z185 ASBOP/N0337F190 Z185 BORDI
Aircraft A320/M-SDE2E3FGIJ1LORWXYZ/HB1

Departure

Time 2026-05-04 10:49
Airport Munich Airport (EDDM)

Arrival

Time 2026-05-04 12:07
Airport Nice-Côte d'Azur Airport (LFMN)
Time Latitude Longitude Altitude Speed Heading
2026-05-04 10:19 48.35549 11.80000 1486 ft 0 kts 263°
2026-05-04 10:35 48.35551 11.80030 1492 ft 4 kts 263°
2026-05-04 10:35 48.35554 11.80063 1477 ft 4 kts 253°
2026-05-04 10:35 48.35567 11.80082 1473 ft 4 kts 178°
2026-05-04 10:35 48.35590 11.80079 1481 ft 2 kts 173°
2026-05-04 10:36 48.35591 11.80079 1481 ft 0 kts 173°
2026-05-04 10:39 48.35404 11.80113 1473 ft 15 kts 170°
2026-05-04 10:39 48.35304 11.80133 1475 ft 14 kts 173°
2026-05-04 10:39 48.35216 11.80152 1485 ft 12 kts 172°
2026-05-04 10:40 48.35162 11.80109 1477 ft 9 kts 263°
2026-05-04 10:40 48.35155 11.80022 1480 ft 8 kts 263°
2026-05-04 10:40 48.35150 11.79947 1485 ft 7 kts 263°
2026-05-04 10:40 48.35145 11.79882 1485 ft 6 kts 263°
2026-05-04 10:41 48.35140 11.79826 1478 ft 5 kts 263°
2026-05-04 10:41 48.35135 11.79751 1485 ft 11 kts 263°
2026-05-04 10:41 48.35124 11.79609 1480 ft 15 kts 263°
2026-05-04 10:41 48.35067 11.79520 1473 ft 13 kts 174°
2026-05-04 10:42 48.34986 11.79535 1477 ft 11 kts 174°
2026-05-04 10:42 48.34916 11.79547 1474 ft 9 kts 174°
2026-05-04 10:42 48.34855 11.79557 1481 ft 8 kts 174°
2026-05-04 10:42 48.34805 11.79553 1485 ft 6 kts 213°
2026-05-04 10:43 48.34787 11.79499 1482 ft 6 kts 252°
2026-05-04 10:44 48.34623 11.77394 1472 ft 41 kts 264°
2026-05-04 10:45 48.34596 11.77037 1485 ft 31 kts 263°
2026-05-04 10:45 48.34572 11.76708 1485 ft 32 kts 263°
2026-05-04 10:45 48.34546 11.76368 1485 ft 33 kts 263°
2026-05-04 10:45 48.34519 11.76017 1481 ft 34 kts 264°
2026-05-04 10:46 48.34480 11.75777 1485 ft 10 kts 200°
2026-05-04 10:46 48.34426 11.75789 1483 ft 7 kts 173°
2026-05-04 10:46 48.34370 11.75829 1480 ft 12 kts 131°
2026-05-04 10:46 48.34328 11.75968 1481 ft 18 kts 113°
2026-05-04 10:47 48.34271 11.76164 1479 ft 23 kts 114°
2026-05-04 10:47 48.34200 11.76407 1475 ft 28 kts 108°
2026-05-04 10:47 48.34191 11.76695 1485 ft 25 kts 84°
2026-05-04 10:47 48.34214 11.76999 1485 ft 48 kts 83°
2026-05-04 10:49 48.35076 11.88216 4316 ft 217 kts 83°
2026-05-04 10:49 48.35253 11.90587 4892 ft 235 kts 83°
2026-05-04 10:50 48.35430 11.93091 5667 ft 245 kts 89°
2026-05-04 10:51 48.25937 12.02595 10680 ft 280 kts 184°
2026-05-04 10:52 48.23973 12.02452 11484 ft 285 kts 184°
2026-05-04 10:52 48.21985 12.02325 12356 ft 288 kts 184°
2026-05-04 10:52 48.19973 12.02205 13224 ft 290 kts 184°
2026-05-04 10:54 48.05320 12.00756 18003 ft 324 kts 197°
2026-05-04 10:54 48.03076 11.99823 18178 ft 343 kts 197°
2026-05-04 10:56 47.85885 11.94758 21967 ft 377 kts 182°
2026-05-04 10:56 47.83250 11.94712 22490 ft 381 kts 182°
2026-05-04 10:56 47.80587 11.94662 23020 ft 384 kts 182°
2026-05-04 10:57 47.77906 11.94611 23551 ft 387 kts 182°
2026-05-04 10:57 47.75198 11.94560 23992 ft 390 kts 182°
2026-05-04 10:57 47.72473 11.94511 24438 ft 393 kts 182°
2026-05-04 10:57 47.69729 11.94462 24876 ft 396 kts 182°
2026-05-04 10:58 47.67000 11.94414 25268 ft 398 kts 182°
2026-05-04 10:58 47.64218 11.94364 25660 ft 401 kts 182°
2026-05-04 10:58 47.61417 11.94315 26086 ft 404 kts 182°
2026-05-04 10:58 47.58595 11.94267 26493 ft 407 kts 182°
2026-05-04 10:59 47.55751 11.94218 26905 ft 410 kts 182°
2026-05-04 10:59 47.52893 11.94167 27329 ft 413 kts 182°
2026-05-04 10:59 47.50014 11.94118 27746 ft 415 kts 182°
2026-05-04 10:59 47.47113 11.94069 28157 ft 418 kts 182°
2026-05-04 11:00 47.44201 11.94017 28567 ft 420 kts 183°
2026-05-04 11:01 47.23693 11.90137 31167 ft 432 kts 189°
2026-05-04 11:02 47.20710 11.89543 31470 ft 433 kts 189°
2026-05-04 11:02 47.17718 11.88945 31849 ft 433 kts 190°
2026-05-04 11:05 46.77910 11.78186 35061 ft 407 kts 194°
2026-05-04 11:06 46.72363 11.76458 35068 ft 408 kts 194°
2026-05-04 11:06 46.66813 11.74698 35066 ft 407 kts 198°
2026-05-04 11:08 46.54447 11.54177 35041 ft 401 kts 243°
2026-05-04 11:10 46.45616 11.28947 35047 ft 402 kts 243°
2026-05-04 11:12 46.36721 11.03721 35231 ft 403 kts 242°
2026-05-04 11:12 46.35442 11.00110 35229 ft 403 kts 242°
2026-05-04 11:12 46.32877 10.92899 35208 ft 403 kts 242°
2026-05-04 11:13 46.30310 10.85692 35200 ft 403 kts 242°
2026-05-04 11:13 46.27784 10.78464 35167 ft 403 kts 243°
2026-05-04 11:14 46.27378 10.77291 35162 ft 403 kts 243°
2026-05-04 11:16 46.15217 10.42481 35106 ft 402 kts 242°
2026-05-04 11:16 46.12677 10.35288 35122 ft 402 kts 242°
2026-05-04 11:17 46.10143 10.28103 35110 ft 402 kts 242°
2026-05-04 11:19 45.98704 10.00672 35119 ft 401 kts 233°
2026-05-04 11:19 45.95403 9.94203 35114 ft 401 kts 233°
2026-05-04 11:20 45.92103 9.87740 35120 ft 401 kts 233°
2026-05-04 11:20 45.88820 9.81333 35126 ft 401 kts 233°
2026-05-04 11:22 45.75588 9.55680 35111 ft 399 kts 233°
2026-05-04 11:23 45.72298 9.49345 35114 ft 399 kts 233°
2026-05-04 11:25 45.60713 9.27135 35138 ft 398 kts 233°
2026-05-04 11:25 45.57397 9.20811 35137 ft 398 kts 233°
2026-05-04 11:27 45.42504 8.92553 35131 ft 396 kts 233°
2026-05-04 11:28 45.39192 8.86303 35140 ft 395 kts 233°
2026-05-04 11:28 45.35841 8.80124 35141 ft 394 kts 228°
2026-05-04 11:29 45.31537 8.75399 35137 ft 397 kts 208°
2026-05-04 11:29 45.26306 8.72772 35131 ft 400 kts 200°
2026-05-04 11:33 44.89112 8.56330 35109 ft 401 kts 201°
2026-05-04 11:33 44.83829 8.54008 35098 ft 401 kts 201°
2026-05-04 11:34 44.78501 8.51680 35100 ft 401 kts 201°
2026-05-04 11:34 44.73084 8.49321 35123 ft 413 kts 201°
2026-05-04 11:35 44.67574 8.46914 35119 ft 415 kts 201°
2026-05-04 11:35 44.62070 8.44515 34372 ft 416 kts 201°
2026-05-04 11:36 44.59348 8.43334 33272 ft 414 kts 200°
2026-05-04 11:36 44.56605 8.42148 32182 ft 410 kts 200°
2026-05-04 11:36 44.53894 8.40976 31220 ft 405 kts 199°
2026-05-04 11:36 44.51218 8.39819 30297 ft 400 kts 199°
2026-05-04 11:37 44.48583 8.38680 29597 ft 388 kts 199°
2026-05-04 11:37 44.46062 8.37591 29212 ft 374 kts 199°
2026-05-04 11:37 44.43594 8.36521 28796 ft 369 kts 199°
2026-05-04 11:37 44.41162 8.35464 28398 ft 363 kts 199°
2026-05-04 11:38 44.38767 8.34426 28014 ft 358 kts 199°
2026-05-04 11:38 44.36402 8.33404 27594 ft 354 kts 199°
2026-05-04 11:38 44.34095 8.32413 27195 ft 349 kts 199°
2026-05-04 11:38 44.31856 8.31181 26764 ft 344 kts 209°
2026-05-04 11:39 44.29872 8.29364 26332 ft 339 kts 220°
2026-05-04 11:39 44.28219 8.27049 25914 ft 336 kts 231°
2026-05-04 11:40 44.20337 8.11193 23174 ft 331 kts 234°
2026-05-04 11:41 44.19027 8.08567 22723 ft 328 kts 234°
2026-05-04 11:41 44.17731 8.05966 22275 ft 326 kts 234°
2026-05-04 11:41 44.16442 8.03382 21850 ft 324 kts 234°
2026-05-04 11:41 44.15155 8.00813 21426 ft 323 kts 234°
2026-05-04 11:42 44.13876 7.98259 20991 ft 321 kts 234°
2026-05-04 11:42 44.12600 7.95716 20576 ft 320 kts 234°
2026-05-04 11:42 44.11327 7.93175 20133 ft 319 kts 234°
2026-05-04 11:42 44.10075 7.90675 19718 ft 319 kts 234°
2026-05-04 11:43 44.08809 7.88147 19294 ft 318 kts 234°
2026-05-04 11:43 44.07543 7.85623 18876 ft 318 kts 234°
2026-05-04 11:43 44.06279 7.83100 18452 ft 318 kts 234°
2026-05-04 11:43 44.05018 7.80589 17994 ft 316 kts 234°
2026-05-04 11:44 44.03768 7.78106 17582 ft 312 kts 234°
2026-05-04 11:44 44.02524 7.75637 17178 ft 311 kts 233°
2026-05-04 11:44 44.01294 7.73195 16955 ft 305 kts 234°
2026-05-04 11:44 44.00096 7.70815 16845 ft 303 kts 234°
2026-05-04 11:45 43.98890 7.68425 16700 ft 302 kts 233°
2026-05-04 11:45 43.97683 7.66036 16559 ft 302 kts 233°
2026-05-04 11:45 43.96479 7.63650 16406 ft 302 kts 234°
2026-05-04 11:45 43.95277 7.61270 16254 ft 301 kts 234°
2026-05-04 11:46 43.94077 7.58894 16135 ft 300 kts 233°
2026-05-04 11:46 43.92883 7.56530 15981 ft 299 kts 233°
2026-05-04 11:46 43.91692 7.54177 15842 ft 298 kts 233°
2026-05-04 11:46 43.90501 7.51826 15691 ft 297 kts 233°
2026-05-04 11:47 43.89314 7.49487 15548 ft 296 kts 233°
2026-05-04 11:47 43.88146 7.47183 15410 ft 296 kts 233°
2026-05-04 11:47 43.86961 7.44851 15270 ft 296 kts 233°
2026-05-04 11:47 43.85740 7.42565 15130 ft 294 kts 225°
2026-05-04 11:48 43.84098 7.40943 14992 ft 292 kts 202°
2026-05-04 11:48 43.82113 7.40413 14850 ft 294 kts 179°
2026-05-04 11:48 43.80128 7.41100 14707 ft 299 kts 155°
2026-05-04 11:48 43.78419 7.42786 14551 ft 303 kts 144°
2026-05-04 11:49 43.76777 7.44628 14405 ft 304 kts 144°
2026-05-04 11:49 43.75141 7.46487 14213 ft 304 kts 143°
2026-05-04 11:49 43.73552 7.48332 13984 ft 302 kts 143°
2026-05-04 11:49 43.71946 7.50202 13718 ft 301 kts 143°
2026-05-04 11:50 43.70348 7.52059 13457 ft 299 kts 143°
2026-05-04 11:50 43.68760 7.53902 13193 ft 298 kts 143°
2026-05-04 11:50 43.67180 7.55729 12849 ft 295 kts 143°
2026-05-04 11:50 43.65608 7.57537 12512 ft 293 kts 143°
2026-05-04 11:51 43.64036 7.59320 12182 ft 291 kts 146°
2026-05-04 11:51 43.62409 7.60950 11844 ft 287 kts 148°
2026-05-04 11:51 43.60770 7.62517 11476 ft 284 kts 148°
2026-05-04 11:51 43.59131 7.63930 11113 ft 280 kts 160°
2026-05-04 11:52 43.57256 7.64356 10746 ft 272 kts 187°
2026-05-04 11:52 43.55488 7.63533 10382 ft 272 kts 213°
2026-05-04 11:52 43.54031 7.61827 10031 ft 276 kts 221°
2026-05-04 11:52 43.52677 7.59961 9658 ft 274 kts 224°
2026-05-04 11:53 43.51347 7.58086 9336 ft 273 kts 223°
2026-05-04 11:53 43.50040 7.56200 9003 ft 271 kts 224°
2026-05-04 11:53 43.48734 7.54322 8659 ft 271 kts 223°
2026-05-04 11:53 43.47452 7.52468 8328 ft 271 kts 224°
2026-05-04 11:55 43.38466 7.39212 6071 ft 270 kts 224°
2026-05-04 11:55 43.37517 7.36983 5735 ft 276 kts 251°
2026-05-04 11:56 43.37240 7.34396 5409 ft 279 kts 264°
2026-05-04 11:56 43.37309 7.31714 5086 ft 282 kts 274°
2026-05-04 11:56 43.37480 7.29049 4760 ft 279 kts 272°
2026-05-04 11:56 43.37660 7.26388 4424 ft 280 kts 275°
2026-05-04 11:57 43.37833 7.23742 4099 ft 276 kts 274°
2026-05-04 11:57 43.37992 7.21143 3975 ft 271 kts 274°
2026-05-04 11:57 43.38143 7.18553 3982 ft 273 kts 273°
2026-05-04 11:57 43.38306 7.15931 3981 ft 277 kts 273°
2026-05-04 11:58 43.38475 7.13333 3978 ft 264 kts 273°
2026-05-04 11:58 43.38625 7.10937 3978 ft 247 kts 273°
2026-05-04 11:58 43.38785 7.08581 3982 ft 248 kts 273°
2026-05-04 11:58 43.38943 7.06223 3983 ft 248 kts 274°
2026-05-04 11:59 43.39093 7.03885 3987 ft 245 kts 273°
2026-05-04 11:59 43.39535 7.01627 3985 ft 248 kts 297°
2026-05-04 11:59 43.40425 6.99587 3987 ft 249 kts 302°
2026-05-04 11:59 43.41378 6.97605 3983 ft 249 kts 303°
2026-05-04 12:00 43.42398 6.95728 3972 ft 247 kts 320°
2026-05-04 12:00 43.43811 6.94603 3978 ft 224 kts 350°
2026-05-04 12:00 43.45299 6.94465 3983 ft 210 kts 16°
2026-05-04 12:00 43.46625 6.95157 3978 ft 203 kts 37°
2026-05-04 12:01 43.47669 6.96437 3990 ft 200 kts 46°
2026-05-04 12:01 43.48654 6.97783 3984 ft 198 kts 47°
2026-05-04 12:02 43.54588 7.05886 2948 ft 203 kts 47°
2026-05-04 12:03 43.55566 7.07222 2691 ft 194 kts 47°
2026-05-04 12:03 43.56503 7.08503 2435 ft 186 kts 49°
2026-05-04 12:03 43.57371 7.09688 2218 ft 167 kts 49°
2026-05-04 12:03 43.58166 7.10777 2002 ft 154 kts 48°
2026-05-04 12:04 43.58891 7.11769 1802 ft 143 kts 49°
2026-05-04 12:04 43.59583 7.12719 1623 ft 136 kts 49°
2026-05-04 12:04 43.60244 7.13625 1443 ft 134 kts 50°
2026-05-04 12:04 43.60896 7.14520 1264 ft 132 kts 47°
2026-05-04 12:05 43.61563 7.15436 1068 ft 136 kts 45°
2026-05-04 12:05 43.62245 7.16371 900 ft 137 kts 47°
2026-05-04 12:05 43.62925 7.17304 701 ft 137 kts 47°
2026-05-04 12:05 43.63585 7.18210 525 ft 134 kts 48°
2026-05-04 12:06 43.64238 7.19107 340 ft 132 kts 48°
2026-05-04 12:06 43.64877 7.19988 182 ft 128 kts 49°
2026-05-04 12:06 43.65509 7.20858 38 ft 127 kts 49°
2026-05-04 12:06 43.66047 7.21612 20 ft 77 kts 44°
2026-05-04 12:07 43.66271 7.21902 22 ft 31 kts 42°
2026-05-04 12:07 43.66436 7.22021 21 ft 17 kts 26°
2026-05-04 12:07 43.66513 7.22052 21 ft 12 kts 12°
2026-05-04 12:07 43.66565 7.21998 21 ft 8 kts 276°
2026-05-04 12:08 43.66539 7.21938 21 ft 7 kts 223°
2026-05-04 12:08 43.66504 7.21898 21 ft 6 kts 219°
2026-05-04 12:08 43.66462 7.21844 21 ft 15 kts 225°
2026-05-04 12:08 43.66364 7.21705 21 ft 15 kts 226°
2026-05-04 12:09 43.66345 7.21679 21 ft 2 kts 225°
2026-05-04 12:09 43.66333 7.21662 21 ft 3 kts 225°
2026-05-04 12:09 43.66320 7.21637 21 ft 3 kts 258°
2026-05-04 12:09 43.66328 7.21600 21 ft 4 kts 305°
2026-05-04 12:10 43.66346 7.21571 21 ft 4 kts 314°
2026-05-04 12:10 43.66361 7.21550 21 ft 3 kts 314°
2026-05-04 12:10 43.66373 7.21535 21 ft 2 kts 324°
2026-05-04 12:10 43.66385 7.21528 21 ft 2 kts 345°
2026-05-04 12:11 43.66402 7.21530 21 ft 3 kts 11°
2026-05-04 12:11 43.66424 7.21553 23 ft 6 kts 45°
2026-05-04 12:11 43.66463 7.21593 21 ft 5 kts 349°
2026-05-04 12:11 43.66490 7.21555 21 ft 5 kts 311°
2026-05-04 12:12 43.66502 7.21537 21 ft 1 kts 314°
2026-05-04 12:12 43.66505 7.21533 21 ft 0 kts 315°